Flag for Germany Weather past 2 weeks in Kamen, North Rhine-Westphalia, Germany

Now
61 °F

Cool.


Feels Like: 61 °F
Forecast: 60 / 78 °F
Wind: 1 mph from North

Location: Muenster / Osnabrueck

Current Time: Jul 26, 2014 at 3:17:52 AM

Latest Report: Jul 26, 2014 at 2:50 AM


Visibility: 1 mi

Pressure: 29.92 "Hg

Humidity: 100%

Dew point: 61 °F

Location of KamenLocation

Historic Weather in Kamen — Graph

°F

Kamen temperature yesterday

Maximum temperature yesterday: 68 °F (at 4:20 PM)
Minimum temperature yesterday: 61 °F (at 1:50 AM)
Average temperature yesterday: 64 °F

Past Weeks' High & Low Weather Summary

 TemperatureHumidityPressure
High93 °F (Jul 19, 2:20 PM)100% (Jul 11, 1:20 AM)30.18 "Hg (Jul 11, 1:20 AM)
Low52 °F (Jul 15, 2:50 AM)19% (Jul 19, 3:20 PM)29.68 "Hg (Jul 13, 3:50 PM)
Average70 °F72%29.97 "Hg
* Reported Jul 11 1:20 AM — Jul 26 1:50 AM, Kamen, Weather by CustomWeather, © 2014

Note: Actual official high and low records may vary slightly from our data, if they occured in-between our weather recording intervals... More about our weather records

Advertising

Kamen weather history for previous 24 hours

 ConditionsComfort  
Time TempWeatherWind HumidityBarometerVisibility
1:50 AM
Jul 26
63 °FMild.1 mph100%29.92 "Hg1 mi
1:20 AM64 °FFog.1 mph100%29.92 "Hg3 mi
12:50 AM64 °FFog.2 mph94%29.92 "Hg3 mi
12:20 AM64 °FPartly cloudy.2 mph94%29.92 "Hg4 mi
11:50 PM
Jul 25
64 °FPartly cloudy.2 mph100%29.92 "Hg5 mi
11:20 PM64 °FPassing clouds.3 mph100%29.92 "Hg5 mi
10:50 PM64 °FPartly cloudy.1 mph100%29.92 "Hg6 mi
10:20 PM64 °FSunny.5 mph100%29.92 "Hg10 mi
9:50 PM66 °FFog.2 mph94%29.92 "HgN/A
9:20 PM66 °FBroken clouds.2 mph94%29.92 "HgN/A
8:50 PM66 °FBroken clouds.2 mph94%29.92 "HgN/A
8:20 PM66 °FLight rain. Broken clouds.3 mph94%29.92 "HgN/A
7:50 PM68 °FSprinkles. Broken clouds.6 mph83%29.92 "HgN/A
7:20 PM68 °FPartly sunny.3 mph83%29.95 "HgN/A
6:50 PM68 °FBroken clouds.5 mph83%29.92 "HgN/A
6:20 PM68 °FBroken clouds.5 mph78%29.95 "HgN/A
5:50 PM68 °FPartly sunny.5 mph78%29.95 "HgN/A
5:20 PM68 °FBroken clouds.3 mph83%29.95 "HgN/A
4:50 PM66 °FBroken clouds.2 mph83%29.95 "HgN/A
4:20 PM68 °FBroken clouds.2 mph83%29.95 "HgN/A
3:50 PM66 °FBroken clouds.3 mph83%29.95 "HgN/A
3:20 PM66 °FBroken clouds.3 mph88%29.98 "HgN/A
2:20 PM64 °FBroken clouds.6 mph94%29.98 "HgN/A
1:50 PM64 °FLight rain. Broken clouds.6 mph88%29.98 "HgN/A
1:20 PM63 °FLight rain. Broken clouds.7 mph94%29.98 "HgN/A
12:50 PM64 °FLight rain. Broken clouds.5 mph88%29.98 "HgN/A
12:20 PM64 °FBroken clouds.5 mph88%29.98 "Hg6 mi
11:50 AM63 °FDrizzle. Broken clouds.5 mph94%29.98 "Hg5 mi
11:20 AM63 °FDrizzle. Fog.5 mph94%30.01 "Hg3 mi
10:50 AM63 °FDrizzle. Fog.6 mph100%30.01 "Hg2 mi
10:20 AM63 °FDrizzle. Broken clouds.6 mph100%30.01 "Hg4 mi
9:50 AM61 °FDrizzle. Broken clouds.3 mph100%30.01 "Hg4 mi
9:20 AM61 °FDrizzle. Fog.5 mph100%30.01 "Hg2 mi
8:50 AM61 °FDrizzle. Fog.7 mph100%30.01 "Hg2 mi
8:20 AM61 °FLight rain. Broken clouds.7 mph94%30.01 "Hg5 mi
7:50 AM63 °FBroken clouds.5 mph88%30.01 "HgN/A
7:20 AM61 °FPartly sunny.3 mph94%30.01 "HgN/A
6:50 AM61 °FLight rain. Broken clouds.5 mph94%30.01 "HgN/A
6:20 AM63 °FPassing clouds.3 mph88%30.01 "HgN/A
5:50 AM63 °FLight rain. Partly cloudy.3 mph88%30.01 "HgN/A
5:20 AM63 °FPassing clouds.3 mph83%30.01 "HgN/A
4:50 AM63 °FPassing clouds.5 mph83%30.01 "HgN/A
4:20 AM63 °FPartly cloudy.5 mph83%30.01 "HgN/A
3:50 AM63 °FPassing clouds.3 mph83%30.01 "HgN/A
3:20 AM64 °FPartly cloudy.9 mph78%30.01 "HgN/A
Weather by CustomWeather, © 2014

See weather overviewHow to use our weather pages